Погода в Байково

Россия / Сахалинская область     47°28′40″N   141°57′55″E
темп.,
°C
ветер,
м/с
пор.,
м/с
влажн.,
%
обл.,
%
осадки,
мм/ч
давл.,
гПа
погр.,
м
2 декабря, чт
чт223:00+1ююз10167791 1.4 9741365
02:00−1ю91597100 0.5 970967
05:00−5зсз91294100 5.5 978987
08:00−5сз111487100 1.6 9821330
11:00−4сз101374100 2.6 9871670
14:00−4сз91180100 0.6 9911490
17:00−4з7966100 0.9 9961034
20:00−3зюз81168100 0.1 10001059
3 декабря, пт
пт323:00−2зюз9126795 0.1 10021138
02:000юз81372100 0.1 10031393
05:00+1юз71181100 0.7 10021107
08:00+1ююз5989100 0.8 10031011
11:00+2юз61069100 0.9 10041164
14:00+1ююз5994100 0.8 1003847
17:00+1ююз4798100 2.9 1003512
20:000ююз3598100 1.6 1004447
4 декабря, сб
сб423:00−1ссз3498100 5.4 1003353
02:00−2ссз6993100 2.6 1005777
05:00−3с6108072 3.1 1006675
08:00−6с598149 0.0 1008497
11:00−5ссв587893 0.0 1009541
14:00−4ссв5678100 0.0 1009671
17:00−5ссв4784100 0.1 1009632
20:00−6ссв5884100 0.6 1011603
5 декабря, вс
вс523:00−8ссв4880100 0.6 1014607
02:00−7ссз5886100 0.3 10151024
05:00−8сз587298 0.4 1017710
08:00−10сз257483 0.0 1019418
11:00−6зюз477066 0.0 10191032
14:00−5зюз7107087 0.1 10191205
17:00−4зюз8117067 0.1 1019932
20:00−2зюз7117264 0.0 1020888
6 декабря, пн
пн623:000юз7117580 0.0 1020924
02:000юз6107838 0.0 1019591
05:00+2юз7118288 0.0 1019924
08:00+3юз8138174 0.0 1018930
11:00+3ююз8158755 0.1 1018945
14:00+4юз10158429 0.1 1016891
17:00+4юз915845 0.1 1015948
20:00+4юз9158522 0.0 1015826